Location: Bailleul
(50.3375°N, 2.8513°E)
Time: 05:14:54
(UTC+00:00)

Terra - Pass Details

Date: 19 April 2021
Orbit: 701 x 703 km, 98.2° (Epoch: 09 May)

Event Time Altitude Azimuth Distance (km) Brightness Sun altitude
Exits shadow 22:12:08 41° 235° (SW) 1,014 2.5 -24.7°
Maximum altitude 22:12:53 45° 262° (W) 964 2.6 -24.8°
Drops below altitude 10° 22:17:28 10° 335° (NNW) 2,182 5.4 -25.1°
Sets 22:19:49 0° 341° (NNW) 3,105 6.5 -25.3°
